Miscellaneous Local Product
Issued by NWS North Platte, NE

Home | Current Version | Previous Version | Text Only | Print | Product List | Glossary On
Versions: 1 2 3 4 5 6 7 8 9 10 11 12 13 14 15 16 17 18 19 20 21 22 23 24 25 26 27 28 29 30 31 32 33 34 35 36 37 38 39 40 41 42 43 44 45 46 47 48 49 50
000
AXUS43 KLBF 281210
MISLBF


WESTERN AND NORTH CENTRAL NEBRASKA HOURLY WEATHER ROUNDUP
NATIONAL WEATHER SERVICE NORTH PLATTE NE
700 AM CDT SUN MAY 28 2023

NOTE: "FAIR" INDICATES FEW OR NO CLOUDS BELOW 12,000 FEET WITH NO
SIGNIFICANT WEATHER AND/OR OBSTRUCTIONS TO VISIBILITY.

NOTE: STATIONS NOT REPORTING SKY/WEATHER AND PRESSURE ARE
PROVIDED BY RAWS AND APRS NETWORKS AND ARE NOT UNDER NATIONAL
WEATHER SERVICE QUALITY CONTROL.

...OBSERVATIONS IN AND NEAR THE EASTERN PANHANDLE OF NEBRASKA...

CITY           SKY/WX    TMP DP  RH WIND       PRES   REMARKS
PINE RIDGE     MOCLDY    56  53  90 S9        29.91R
GORDON         CLOUDY    56  55  96 CALM      29.92F
CHADRON        MOCLDY    57  51  80 S3        29.90F
ALLIANCE       MOCLDY    52  50  93 MISG      29.95R
GURLEY         MOCLDY    51  51  98 SW5       29.94S
SIDNEY         PTCLDY    49  48  97 E5        29.96S FOG
LODGEPOLE      FAIR      51  50  96 CALM      29.96R
CRESCENT LAKE    N/A     55  55  99 S5G15       N/A
$$

...OBSERVATIONS IN NORTHERN NEBRASKA AND FAR SOUTHERN SOUTH DAKOTA...

CITY           SKY/WX    TMP DP  RH WIND       PRES   REMARKS
WINNER         MOCLDY    63  47  55 S14       29.94S
VALENTINE      LGT RAIN  59  52  77 SE12      29.93F
AINSWORTH      LGT RAIN  58  48  70 S12       29.97S
O`NEILL        CLOUDY    62  44  52 SE12      30.00S
THEDFORD       LGT RAIN  59  57  94 SE8       29.96S
BROKEN BOW     LGT RAIN  62  53  72 S8        29.99R
ORD            CLOUDY    63  49  60 SE7       29.99R
ALBION         PTCLDY    58  45  61 SE8       30.03S
EWING            N/A     58  45  62 CALM        N/A
CHAMBERS         N/A     61  49  63 CALM        N/A
BUTTE            N/A     62  47  57 SE7         N/A
SPRINGVIEW       N/A     64  50  61 SE6         N/A
VALENTINE NWR    N/A     56  53  91 SE5         N/A
HALSEY           N/A     58  56  93 NW6         N/A
$$

...OBSERVATIONS IN SOUTHWEST NEBRASKA AND FAR NORTHEAST COLORADO...

CITY           SKY/WX    TMP DP  RH WIND       PRES   REMARKS
WRAY           MOCLDY    54  54 100 NW12      29.98R
HOLYOKE        PTCLDY    55  52  88 CALM      29.99R
IMPERIAL       MOCLDY    56  54  93 N7        29.95R
GRANT          FAIR      54  54 100 NW6       29.96R
OGALLALA       MOCLDY    57  56  99 S3        29.95S
NORTH PLATTE   RAIN      59  57  93 E10       29.92F FOG
MCCOOK         RAIN      58  56  93 NE8       30.01R FOG
LEXINGTON      LGT RAIN  61  59  92 S5        30.00R
CALLAWAY         N/A     60  56  88 S12         N/A
STAPLETON        N/A     57  56  96 CALM        N/A
$$

...OBSERVATIONS IN CENTRAL LINCOLN COUNTY AREA...

CITY           SKY/WX    TMP DP  RH WIND       PRES   REMARKS
N.P. AIRPORT   RAIN      59  57  93 E10       29.92F FOG
N.P. HILLCREST   N/A     59  56  91 E17         N/A
N.P. DOWNTOWN    N/A     57  56  97 CALM        N/A
N.P. SOUTHEAST   N/A     57  56  96 E6G16       N/A
$$

...OBSERVATIONS ACROSS THE ROCKIES AND WESTERN HIGH PLAINS...

CITY           SKY/WX    TMP DP  RH WIND       PRES   REMARKS
SCOTTSBLUFF    PTCLDY    54  52  93 E7        29.95R
KIMBALL        CLEAR     47  46  97 S7        29.99R
CHEYENNE       CLEAR     46  41  82 SW8       30.01S
DENVER         PTCLDY    49  46  90 S8        30.02R
STEAMBOAT      FAIR      36  36 100 CALM      30.09R
COPPER MTN     CLEAR     37  23  56 W7        30.33S
LEADVILLE      CLEAR     27  23  85 S3        30.23R
ASPEN          CLEAR     35  26  69 CALM      30.13R
GUNNISON       CLEAR     32  26  78 NE5       30.20R
TELLURIDE      CLEAR     39  18  41 SE6       30.23R
LARAMIE        CLEAR     37  31  78 SW8       30.06S
CASPER         CLEAR     49  40  71 SW8       29.96R
GILLETTE       PTCLDY    50  48  93 S7        29.89R
SHERIDAN       CLEAR     53  45  74 CALM      29.90S
JACKSON        CLOUDY    41  39  93 CALM      30.09R FOG
YELLOWSTONE      N/A     39  37  92 CALM      30.11S
$$

...OBSERVATIONS ACROSS THE NORTHERN PLAINS...

CITY           SKY/WX    TMP DP  RH WIND       PRES   REMARKS
RAPID CITY     MOCLDY    54  54 100 S8        29.90F
PIERRE         MOCLDY    62  46  55 SE12      29.89R
SIOUX FALLS    MOSUNNY   60  39  45 SE7       30.07R
ABERDEEN       PTCLDY    61  39  44 S13       29.97F
WILLISTON      FAIR      55  55 100 CALM      29.86R
DICKINSON      MOCLDY    56  54  93 SW9       29.87R
BISMARCK       CLEAR     63  49  60 VRB3      29.88R
FARGO          SUNNY     64  34  32 SE14      30.01S
GRAND FORKS    MOSUNNY   61  35  37 S10       29.98S
$$

...OBSERVATIONS ACROSS THE CENTRAL AND SOUTHERN PLAINS...

CITY           SKY/WX    TMP DP  RH WIND       PRES   REMARKS
GRAND ISLAND   CLOUDY    62  47  57 SE10      30.02S
LINCOLN          N/A     60  43  53 S6        30.06R
OMAHA          MOSUNNY   57  43  59 E3        30.07F
DES MOINES     MOSUNNY   57  42  57 CALM      30.12R
KANSAS CITY    SUNNY     57  50  77 S6        30.07S
WICHITA        MOCLDY    64  52  64 SE8       30.03R
DODGE CITY     PTCLDY    61  57  87 S14G25    29.97S FOG
OKLAHOMA CITY  MOCLDY    65  58  78 S8        30.01R
DALLAS         MOCLDY    70  58  65 SE7       30.00R
AMARILLO       CLOUDY    62  60  93 SW7       30.07R
$$

...OBSERVATIONS ACROSS THE COUNTRY...

CITY           SKY/WX    TMP DP  RH WIND       PRES   REMARKS
NEW YORK       MOSUNNY   65  36  34 SW7       30.20S
MIAMI          MOSUNNY   79  71  76 CALM      29.95R
PHOENIX        PTCLDY    72  32  23 E8        29.81R
LOS ANGELES    CLOUDY    62  54  74 CALM      29.93F
SEATTLE        CLOUDY    48  43  82 S5        30.06S
$$



USA.gov is the U.S. government's official web portal to all federal, state and local government web resources and services.